Location: Asheville, NC
(35.6000°N, 82.5500°W)
Time: 19:16:10
(UTC-04:00)

Tiangong 2 - Pass Details

Date: 13 December 2017
Orbit: 382 x 387 km, 42.8° (Epoch: 21 April)

Event Time Altitude Azimuth Distance (km) Brightness Sun altitude
Exits shadow 05:59:25 11° 204° (SSW) 1,351 3.7 -18.1°
Drops below altitude 10° 05:59:44 10° 199° (SSW) 1,393 3.9 -18.0°
Sets 06:02:53 0° 164° (SSE) 2,244 5.4 -17.4°
